H1 CPF 2 NER 2022 1 18 9 018 01 glonass134 H2 1407501 9134 40315 2022 1 18 0 0 0 2022 1 21 23 45 0 900 1 1 0 0 0 1 H9 10 0 59597 0.00000 0 -4655946.646 -11668137.890 22202839.716 10 0 59597 900.00000 0 -3060355.455 -13816143.070 21219458.682 10 0 59597 1800.00000 0 -1699763.072 -15949114.143 19823844.042 10 0 59597 2700.00000 0 -588554.528 -18002695.461 18042854.804 10 0 59597 3600.00000 0 271089.773 -19912596.651 15910886.305 10 0 59597 4500.00000 0 889059.114 -21617174.665 13469218.792 10 0 59597 5400.00000 0 1286660.896 -23059928.812 10765226.806 10 0 59597 6300.00000 0 1495479.322 -24191803.384 7851463.572 10 0 59597 7200.00000 0 1555792.276 -24973199.734 4784637.759 10 0 59597 8100.00000 0 1514613.691 -25375611.503 1624502.588 10 0 59597 9000.00000 0 1423445.187 -25382812.278 -1567320.370 10 0 59597 9900.00000 0 1335833.709 -24991543.913 -4728558.404 10 0 59597 10800.00000 0 1304840.731 -24211675.163 -7797520.467 10 0 59597 11700.00000 0 1380532.668 -23065823.128 -10714319.567 10 0 59597 12600.00000 0 1607601.305 -21588453.323 -13422058.802 10 0 59597 13500.00000 0 2023217.497 -19824496.749 -15867956.086 10 0 59597 14400.00000 0 2655211.037 -17827543.184 -18004384.105 10 0 59597 15300.00000 0 3520655.318 -15657688.055 -19789804.141 10 0 59597 16200.00000 0 4624917.571 -13379124.825 -21189575.096 10 0 59597 17100.00000 0 5961215.315 -11057585.211 -22176622.071 10 0 59597 18000.00000 0 7510697.567 -8757735.546 -22731952.072 10 0 59597 18900.00000 0 9243047.026 -6540638.660 -22845007.902 10 0 59597 19800.00000 0 11117577.243 -4461387.117 -22513854.745 10 0 59597 20700.00000 0 13084777.960 -2567005.785 -21745197.382 10 0 59597 21600.00000 0 15088243.223 -894709.588 -20554229.304 10 0 59597 22500.00000 0 17066901.120 529413.110 -18964318.176 10 0 59597 23400.00000 0 18957451.669 1691239.173 -17006535.075 10 0 59597 24300.00000 0 20696911.249 2588939.400 -14719037.725 10 0 59597 25200.00000 0 22225157.821 3232786.541 -12146320.455 10 0 59597 26100.00000 0 23487371.501 3644453.449 -9338345.915 10 0 59597 27000.00000 0 24436269.770 3855833.316 -6349575.573 10 0 59597 27900.00000 0 25034045.288 3907433.459 -3237917.605 10 0 59597 28800.00000 0 25253926.717 3846411.513 -63612.291 10 0 59597 29700.00000 0 25081298.679 3724337.406 3111924.151 10 0 59597 30600.00000 0 24514335.121 3594775.510 6227275.730 10 0 59597 31500.00000 0 23564120.382 3510788.509 9222200.951 10 0 59597 32400.00000 0 22254253.239 3522467.536 12038783.653 10 0 59597 33300.00000 0 20619950.256 3674591.901 14622539.310 10 0 59597 34200.00000 0 18706685.238 4004516.263 16923456.565 10 0 59597 35100.00000 0 16568420.367 4540373.791 18896955.042 10 0 59597 36000.00000 0 14265501.158 5299670.907 20504741.957 10 0 59597 36900.00000 0 11862301.182 6288333.251 21715551.704 10 0 59597 37800.00000 0 9424712.609 7500244.119 22505754.631 10 0 59597 38700.00000 0 7017585.052 8917296.607 22859823.341 10 0 59597 39600.00000 0 4702217.656 10509959.579 22770647.072 10 0 59597 40500.00000 0 2534007.368 12238336.481 22239687.326 10 0 59597 41400.00000 0 560350.356 14053675.586 21276970.421 10 0 59597 42300.00000 0 -1181116.350 15900271.148 19900915.527 10 0 59597 43200.00000 0 -2663859.646 17717678.338 18137999.645 10 0 59597 44100.00000 0 -3873325.000 19443151.047 16022264.071 10 0 59597 45000.00000 0 -4807303.597 21014201.462 13594670.106 10 0 59597 45900.00000 0 -5475775.904 22371174.364 10902314.931 10 0 59597 46800.00000 0 -5900237.630 23459727.526 7997521.738 10 0 59597 47700.00000 0 -6112536.098 24233112.707 4936821.305 10 0 59597 48600.00000 0 -6153266.333 24654159.505 1779844.877 10 0 59597 49500.00000 0 -6069795.339 24696876.493 -1411849.399 10 0 59597 50400.00000 0 -5913999.454 24347600.092 -4575992.275 10 0 59597 51300.00000 0 -5739812.422 23605640.948 -7650836.047 10 0 59597 52200.00000 0 -5600690.283 22483399.192 -10576378.064 10 0 59597 53100.00000 0 -5547102.931 21005943.003 -13295549.135 10 0 59597 54000.00000 0 -5624161.000 19210068.111 -15755341.810 10 0 59597 54900.00000 0 -5869480.748 17142878.287 -17907855.014 10 0 59597 55800.00000 0 -6311379.003 14859947.527 -19711233.519 10 0 59597 56700.00000 0 -6967475.690 12423142.276 -21130483.467 10 0 59597 57600.00000 0 -7843763.529 9898196.289 -22138148.136 10 0 59597 58500.00000 0 -8934184.175 7352140.742 -22714831.326 10 0 59597 59400.00000 0 -10220728.184 4850697.718 -22849559.277 10 0 59597 60300.00000 0 -11674053.842 2455745.916 -22539975.459 10 0 59597 61200.00000 0 -13254597.852 222963.824 -21792365.991 10 0 59597 62100.00000 0 -14914130.323 -1800252.741 -20621516.821 10 0 59597 63000.00000 0 -16597688.091 -3576513.899 -19050406.974 10 0 59597 63900.00000 0 -18245804.758 -5079730.351 -17109745.154 10 0 59597 64800.00000 0 -19796943.937 -6295928.313 -14837359.817 10 0 59597 65700.00000 0 -21190034.040 -7223553.776 -12277455.279 10 0 59597 66600.00000 0 -22366999.069 -7873256.301 -9479748.843 10 0 59597 67500.00000 0 -23275180.367 -8267164.198 -6498505.827 10 0 59597 68400.00000 0 -23869549.121 -8437683.803 -3391491.057 10 0 59597 69300.00000 0 -24114618.170 -8425874.979 -218856.856 10 0 59597 70200.00000 0 -23985974.324 -8279472.310 2958011.559 10 0 59597 71100.00000 0 -23471368.066 -8050635.737 6077671.734 10 0 59597 72000.00000 0 -22571315.778 -7793525.288 9079798.825 10 0 59597 72900.00000 0 -21299189.606 -7561801.564 11906338.016 10 0 59597 73800.00000 0 -19680791.053 -7406156.521 14502613.450 10 0 59597 74700.00000 0 -17753425.416 -7371977.632 16818373.327 10 0 59597 75600.00000 0 -15564514.514 -7497243.080 18808752.193 10 0 59597 76500.00000 0 -13169803.844 -7810736.086 20435132.850 10 0 59597 77400.00000 0 -10631236.934 -8330653.479 21665891.987 10 0 59597 78300.00000 0 -8014583.158 -9063667.596 22477015.638 10 0 59597 79200.00000 0 -5386915.438 -10004482.136 22852572.687 10 0 59597 80100.00000 0 -2814040.741 -11135902.385 22785036.880 10 0 59597 81000.00000 0 -357988.410 -12429419.177 22275450.355 10 0 59597 81900.00000 0 1925340.544 -13846284.699 21333424.237 10 0 59597 82800.00000 0 3988266.078 -15339037.638 19976974.726 10 0 59597 83700.00000 0 5793076.816 -16853416.208 18232195.957 10 0 59597 84600.00000 0 7313359.715 -18330580.837 16132774.054 10 0 59597 85500.00000 0 8534855.529 -19709554.562 13719349.945 10 0 59598 0.00000 0 9455803.480 -20929779.155 11038742.001 10 0 59598 900.00000 0 10086760.442 -21933679.920 8143040.910 10 0 59598 1800.00000 0 10449900.512 -22669128.594 5088597.558 10 0 59598 2700.00000 0 10577826.079 -23091701.179 1934918.766 10 0 59598 3600.00000 0 10511939.652 -23166631.786 -1256503.349 10 0 59598 4500.00000 0 10300446.802 -22870378.499 -4423405.709 10 0 59598 5400.00000 0 9996076.161 -22191732.946 -7503986.703 10 0 59598 6300.00000 0 9653615.026 -21132424.917 -10438130.779 10 0 59598 7200.00000 0 9327367.210 -19707195.242 -13168599.166 10 0 59598 8100.00000 0 9068643.166 -17943333.166 -15642161.667 10 0 59598 9000.00000 0 8923390.893 -15879697.612 -17810645.912 10 0 59598 9900.00000 0 8930069.664 -13565264.041 -19631882.407 10 0 59598 10800.00000 0 9117857.836 -11057258.771 -21070526.503 10 0 59598 11700.00000 0 9505271.140 -8418960.042 -22098741.267 10 0 59598 12600.00000 0 10099249.845 -5717258.948 -22696728.529 10 0 59598 13500.00000 0 10894752.793 -3020082.919 -22853098.812 10 0 59598 14400.00000 0 11874874.513 -393789.585 -22565074.316 10 0 59598 15300.00000 0 13011479.283 2099360.545 -21838522.573 10 0 59598 16200.00000 0 14266324.238 4403548.227 -20687821.721 10 0 59598 17100.00000 0 15592623.190 6471460.476 -19135561.555 10 0 59598 18000.00000 0 16936984.540 8265992.470 -17212087.508 10 0 59598 18900.00000 0 18241641.378 9761518.121 -14954897.549 10 0 59598 19800.00000 0 19446880.027 10944679.267 -12407904.442 10 0 59598 20700.00000 0 20493565.343 11814663.454 -9620578.280 10 0 59598 21600.00000 0 21325657.441 12382961.612 -6646986.046 10 0 59598 22500.00000 0 21892615.178 12672618.342 -3544746.748 10 0 59598 23400.00000 0 22151586.601 12717008.279 -373922.060 10 0 59598 24300.00000 0 22069295.608 12558191.430 2804136.647 10 0 59598 25200.00000 0 21623546.711 12244917.464 5927963.370 10 0 59598 26100.00000 0 20804285.546 11830363.126 8937152.801 10 0 59598 27000.00000 0 19614171.089 11369697.705 11773514.277 10 0 59598 27900.00000 0 18068635.479 10917578.341 14382183.268 10 0 59598 28800.00000 0 16195428.309 10525679.649 16712670.012 10 0 59598 29700.00000 0 14033663.239 10240360.651 18719826.260 10 0 59598 30600.00000 0 11632404.947 10100566.363 20364712.471 10 0 59598 31500.00000 0 9048853.304 10136051.761 21615349.451 10 0 59598 32400.00000 0 6346197.945 10366002.806 22447340.466 10 0 59598 33300.00000 0 3591230.016 10798113.006 22844351.919 10 0 59598 34200.00000 0 851808.072 11428155.478 22798442.934 10 0 59598 35100.00000 0 -1805718.695 12240070.190 22310236.734 10 0 59598 36000.00000 0 -4319024.499 13206564.848 21388929.251 10 0 59598 36900.00000 0 -6632154.820 14290206.555 20052133.218 10 0 59598 37800.00000 0 -8697610.963 15444960.734 18325558.935 10 0 59598 38700.00000 0 -10478084.545 16618114.745 16242535.916 10 0 59598 39600.00000 0 -11947768.969 17752506.891 13843382.889 10 0 59598 40500.00000 0 -13093192.413 18788967.941 11174636.745 10 0 59598 41400.00000 0 -13913536.611 19668872.470 8288154.221 10 0 59598 42300.00000 0 -14420427.258 20336691.798 5240103.224 10 0 59598 43200.00000 0 -14637204.518 20742439.422 2089863.402 10 0 59598 44100.00000 0 -14597704.405 20843903.774 -1101142.011 10 0 59598 45000.00000 0 -14344603.107 20608571.693 -4270659.004 10 0 59598 45900.00000 0 -13927395.423 20015159.037 -7356834.977 10 0 59598 46800.00000 0 -13400094.571 19054681.578 -10299444.332 10 0 59598 47700.00000 0 -12818752.770 17731019.254 -13041081.465 10 0 59598 48600.00000 0 -12238909.837 16060948.730 -15528295.996 10 0 59598 49500.00000 0 -11713079.954 14073642.284 -17712646.581 10 0 59598 50400.00000 0 -11288384.836 11809654.142 -19551651.507 10 0 59598 51300.00000 0 -11004434.789 9319437.301 -21009617.056 10 0 59598 52200.00000 0 -10891547.984 6661453.799 -22058327.490 10 0 59598 53100.00000 0 -10969383.261 3899958.537 -22677583.712 10 0 59598 54000.00000 0 -11246043.641 1102550.029 -22855581.207 10 0 59598 54900.00000 0 -11717687.315 -1662409.245 -22589121.200 10 0 59598 55800.00000 0 -12368661.097 -4328395.239 -21883652.528 10 0 59598 56700.00000 0 -13172149.145 -6833239.745 -20753144.991 10 0 59598 57600.00000 0 -14091308.110 -9121459.195 -19219798.219 10 0 59598 58500.00000 0 -15080839.588 -11146299.668 -17313593.058 10 0 59598 59400.00000 0 -16088932.697 -12871415.237 -15071695.329 10 0 59598 60300.00000 0 -17059494.500 -14272112.447 -12537724.322 10 0 59598 61200.00000 0 -17934574.304 -15336111.767 -9760900.769 10 0 59598 62100.00000 0 -18656880.169 -16063797.122 -6795091.038 10 0 59598 63000.00000 0 -19172282.467 -16467945.708 -3697765.922 10 0 59598 63900.00000 0 -19432200.098 -16572951.632 -528893.976 10 0 59598 64800.00000 0 -19395770.121 -16413577.712 2650209.797 10 0 59598 65700.00000 0 -19031710.547 -16033289.000 5778058.432 10 0 59598 66600.00000 0 -18319798.929 -15482238.514 8794168.767 10 0 59598 67500.00000 0 -17251905.108 -14814989.843 11640216.911 10 0 59598 68400.00000 0 -15832534.813 -14088071.772 14261152.230 10 0 59598 69300.00000 0 -14078860.848 -13357466.881 16606249.464 10 0 59598 70200.00000 0 -12020239.432 -12676138.571 18630079.838 10 0 59598 71100.00000 0 -9697230.201 -12091699.387 20293383.474 10 0 59598 72000.00000 0 -7160158.673 -11644317.697 21563826.990 10 0 59598 72900.00000 0 -4467278.561 -11364950.138 22416632.216 10 0 59598 73800.00000 0 -1682607.702 -11273973.991 22835064.028 10 0 59598 74700.00000 0 1126474.953 -11380277.433 22810767.506 10 0 59598 75600.00000 0 3891773.926 -11680846.933 22343947.180 10 0 59598 76500.00000 0 6546859.667 -12160870.690 21443383.672 10 0 59598 77400.00000 0 9029582.989 -12794355.677 20126285.825 10 0 59598 78300.00000 0 11284417.821 -13545234.410 18417979.370 10 0 59598 79200.00000 0 13264535.014 -14368916.869 16351436.178 10 0 59598 80100.00000 0 14933520.386 -15214223.868 13966651.417 10 0 59598 81000.00000 0 16266664.565 -16025621.539 11309879.054 10 0 59598 81900.00000 0 17251769.730 -16745663.094 8432739.340 10 0 59598 82800.00000 0 17889438.429 -17317534.430 5391215.057 10 0 59598 83700.00000 0 18192831.636 -17687594.962 2244555.996 10 0 59598 84600.00000 0 18186905.897 -17807804.496 -945886.395 10 0 59598 85500.00000 0 17907161.888 -17637931.332 -4117870.218 10 0 59599 0.00000 0 17397958.098 -17147445.857 -7209494.688 10 0 59599 900.00000 0 16710461.917 -16317016.798 -10160427.759 10 0 59599 1800.00000 0 15900327.310 -15139545.570 -12913099.605 10 0 59599 2700.00000 0 15025198.454 -13620692.459 -15413842.385 10 0 59599 3600.00000 0 14142147.690 -11778871.947 -17613948.254 10 0 59599 4500.00000 0 13305157.804 -9644716.695 -19470625.458 10 0 59599 5400.00000 0 12562756.593 -7260032.799 -20947833.061 10 0 59599 6300.00000 0 11955904.519 -4676290.593 -22016977.975 10 0 59599 7200.00000 0 11516224.886 -1952714.997 -22657461.245 10 0 59599 8100.00000 0 11264650.699 845943.991 -22857063.951 10 0 59599 9000.00000 0 11210544.192 3651867.071 -22612166.567 10 0 59599 9900.00000 0 11351324.551 6396744.920 -21927799.059 10 0 59599 10800.00000 0 11672617.640 9014373.867 -20817522.354 10 0 59599 11700.00000 0 12148919.480 11443160.707 -19303145.043 10 0 59599 12600.00000 0 12744743.702 13628433.703 -17414282.205 10 0 59599 13500.00000 0 13416203.100 15524465.514 -15187766.045 10 0 59599 14400.00000 0 14112957.541 17096126.116 -12666920.620 10 0 59599 15300.00000 0 14780445.532 18320099.337 -9900715.279 10 0 59599 16200.00000 0 15362305.314 19185614.968 -6942813.479 10 0 59599 17100.00000 0 15802883.749 19694668.465 -3850535.294 10 0 59599 18000.00000 0 16049728.028 19861721.335 -683753.478 10 0 59599 18900.00000 0 16055956.114 19712896.706 2496256.129 10 0 59599 19800.00000 0 15782407.079 19284705.164 5627988.403 10 0 59599 20700.00000 0 15199481.753 18622355.065 8650885.099 10 0 59599 21600.00000 0 14288596.849 17777718.432 11506491.744 10 0 59599 22500.00000 0 13043191.669 16807037.458 14139574.091 10 0 59599 23400.00000 0 11469244.857 15768467.065 16499173.680 10 0 59599 24300.00000 0 9585278.571 14719555.584 18539583.310 10 0 59599 25200.00000 0 7421848.375 13714768.026 20221224.647 10 0 59599 26100.00000 0 5020538.118 12803154.689 21511411.756 10 0 59599 27000.00000 0 2432499.206 12026261.940 22384986.413 10 0 59599 27900.00000 0 -283407.699 11416372.206 22824813.041 10 0 59599 28800.00000 0 -3062794.011 10995146.951 22822123.398 10 0 59599 29700.00000 0 -5838159.599 10772729.955 22376703.653 10 0 59599 30600.00000 0 -8541446.222 10747349.542 21496919.005 10 0 59599 31500.00000 0 -11106623.601 10905437.797 20199573.820 10 0 59599 32400.00000 0 -13472201.902 11222263.449 18509608.195 10 0 59599 33300.00000 0 -15583566.575 11663053.476 16459634.836 10 0 59599 34200.00000 0 -17395038.082 12184557.779 14089323.426 10 0 59599 35100.00000 0 -18871569.943 12736992.114 11444642.740 10 0 59599 36000.00000 0 -19990013.076 13266277.881 8576974.033 10 0 59599 36900.00000 0 -20739892.251 13716484.065 5542112.279 10 0 59599 37800.00000 0 -21123661.037 14032367.229 2399174.636 10 0 59599 38700.00000 0 -21156423.750 14161900.573 -790562.062 10 0 59599 39600.00000 0 -20865135.774 14058682.954 -3964870.873 10 0 59599 40500.00000 0 -20287316.345 13684123.481 -7061806.198 10 0 59599 41400.00000 0 -19469328.999 13009306.687 -10020931.199 10 0 59599 42300.00000 0 -18464303.780 12016457.045 -12784515.078 10 0 59599 43200.00000 0 -17329790.844 10699938.903 -15298675.040 10 0 59599 44100.00000 0 -16125246.566 9066748.096 -17514439.018 10 0 59599 45000.00000 0 -14909460.301 7136473.628 -19388707.197 10 0 59599 45900.00000 0 -13738032.010 4940730.657 -20885093.039 10 0 59599 46800.00000 0 -12661008.269 2522088.725 -21974627.338 10 0 59599 47700.00000 0 -11720776.753 -67459.316 -22636312.084 10 0 59599 48600.00000 0 -10950307.621 -2768422.948 -22857514.337 10 0 59599 49500.00000 0 -10371814.804 -5516053.176 -22634193.782 10 0 59599 50400.00000 0 -9995891.994 -8242801.353 -21970961.060 10 0 59599 51300.00000 0 -9821157.602 -10880895.131 -20880967.377 10 0 59599 52200.00000 0 -9834421.357 -13364924.762 -19385629.080 10 0 59599 53100.00000 0 -10011363.250 -15634332.901 -17514193.947 10 0 59599 54000.00000 0 -10317694.121 -17635705.806 -15303158.777 10 0 59599 54900.00000 0 -10710747.300 -19324772.418 -12795550.404 10 0 59599 55800.00000 0 -11141432.974 -20668030.167 -10040084.681 10 0 59599 56700.00000 0 -11556472.220 -21643932.193 -7090219.971 10 0 59599 57600.00000 0 -11900816.315 -22243588.802 -4003123.411 10 0 59599 58500.00000 0 -12120149.639 -22470956.086 -838569.737 10 0 59599 59400.00000 0 -12163371.244 -22342505.788 2342206.594 10 0 59599 60300.00000 0 -11984951.343 -21886391.707 5477684.535 10 0 59599 61200.00000 0 -11547064.284 -21141148.513 8507233.007 10 0 59599 62100.00000 0 -10821408.927 -20153977.860 11372269.222 10 0 59599 63000.00000 0 -9790640.203 -18978693.461 14017377.571 10 0 59599 63900.00000 0 -8449351.675 -17673410.535 16391368.580 10 0 59599 64800.00000 0 -6804567.163 -16298075.403 18448258.691 10 0 59599 65700.00000 0 -4875719.579 -14911937.381 20148152.993 10 0 59599 66600.00000 0 -2694115.991 -13571067.518 21458014.646 10 0 59599 67500.00000 0 -301908.850 -12326026.784 22352306.723 10 0 59599 68400.00000 0 2249386.509 -11219780.324 22813494.234 10 0 59599 69300.00000 0 4900769.246 -10285944.555 22832396.336 10 0 59599 70200.00000 0 7587950.066 -9547440.376 22408381.226 10 0 59599 71100.00000 0 10243779.263 -9015609.317 21549398.755 10 0 59599 72000.00000 0 12800806.880 -8689830.553 20271848.586 10 0 59599 72900.00000 0 15193870.080 -8557656.058 18600284.650 10 0 59599 73800.00000 0 17362600.901 -8595459.562 16566959.649 10 0 59599 74700.00000 0 19253749.928 -8769573.381 14211216.595 10 0 59599 75600.00000 0 20823228.424 -9037866.316 11578737.548 10 0 59599 76500.00000 0 22037782.544 -9351696.684 8720662.855 10 0 59599 77400.00000 0 22876228.130 -9658158.075 5692597.395 10 0 59599 78300.00000 0 23330192.982 -9902522.228 2553523.045 10 0 59599 79200.00000 0 23404334.188 -10030774.343 -635360.908 10 0 59599 80100.00000 0 23116020.594 -9992131.591 -3811845.612 10 0 59599 81000.00000 0 22494493.561 -9741435.815 -6913943.610 10 0 59599 81900.00000 0 21579541.809 -9241316.538 -9881117.010 10 0 59599 82800.00000 0 20419747.232 -8464030.241 -12655476.817 10 0 59599 83700.00000 0 19070377.238 -7392895.798 -15182928.115 10 0 59599 84600.00000 0 17591014.307 -6023263.583 -17414237.170 10 0 59599 85500.00000 0 16043024.671 -4362976.093 -19305998.344 10 0 59600 0.00000 0 14486974.621 -2432300.107 -20821481.266 10 0 59600 900.00000 0 12980103.710 -263331.975 -21931342.403 10 0 59600 1800.00000 0 11573964.015 2101096.066 -22614185.656 10 0 59600 2700.00000 0 10312321.875 4608965.683 -22856964.780 10 0 59600 3600.00000 0 9229411.623 7201010.356 -22655218.968 10 0 59600 4500.00000 0 8348612.358 9812960.899 -22013139.426 10 0 59600 5400.00000 0 7681601.409 12378004.460 -20943467.130 10 0 59600 6300.00000 0 7228017.581 14829354.667 -19467225.296 10 0 59600 7200.00000 0 6975645.745 17102826.291 -17613293.165 10 0 59600 8100.00000 0 6901112.427 19139308.258 -15417830.560 10 0 59600 9000.00000 0 6971060.820 20887033.482 -12923565.209 10 0 59600 9900.00000 0 7143753.914 22303552.655 -10178957.294 10 0 59600 10800.00000 0 7371036.862 23357331.817 -7237257.649 10 0 59600 11700.00000 0 7600575.098 24028909.185 -4155477.819 10 0 59600 12600.00000 0 7778273.670 24311564.978 -993291.696 10 0 59600 13500.00000 0 7850775.990 24211478.158 2188110.560 10 0 59600 14400.00000 0 7767937.244 23747364.995 5327194.918 10 0 59600 15300.00000 0 7485168.950 22949615.644 8363260.332 10 0 59600 16200.00000 0 6965556.640 21858965.341 11237598.432 10 0 59600 17100.00000 0 6181662.028 20524755.765 13894614.800 10 0 59600 18000.00000 0 5116934.097 19002858.746 16282891.288 10 0 59600 18900.00000 0 3766669.440 17353348.170 18356170.082 10 0 59600 19800.00000 0 2138480.633 15638016.052 20074241.550 10 0 59600 20700.00000 0 252251.515 13917835.185 21403719.532 10 0 59600 21600.00000 0 -1860420.983 12250472.865 22318689.698 10 0 59600 22500.00000 0 -4157277.740 10687958.256 22801218.626 10 0 59600 23400.00000 0 -6586900.146 9274599.892 22841713.491 10 0 59600 24300.00000 0 -9090605.004 8045239.753 22439124.731 10 0 59600 25200.00000 0 -11604655.615 7023916.802 21600986.615 10 0 59600 26100.00000 0 -14062699.414 6222996.321 20343293.388 10 0 59600 27000.00000 0 -16398332.569 5642802.262 18690211.614 10 0 59600 27900.00000 0 -18547685.972 5271769.038 16673632.306 10 0 59600 28800.00000 0 -20451925.101 5087107.512 14332569.704 10 0 59600 29700.00000 0 -22059559.139 5055958.126 11712416.667 10 0 59600 30600.00000 0 -23328461.855 5136983.230 8864069.879 10 0 59600 31500.00000 0 -24227518.183 5282331.588 5842941.182 10 0 59600 32400.00000 0 -24737825.856 5439891.570 2707874.137 10 0 59600 33300.00000 0 -24853400.072 5555736.621 -480012.586 10 0 59600 34200.00000 0 -24581350.223 5576657.760 -3658531.266 10 0 59600 35100.00000 0 -23941520.515 5452673.633 -6765655.564 10 0 59600 36000.00000 0 -22965609.393 5139409.258 -9740749.429 10 0 59600 36900.00000 0 -21695805.393 4600240.187 -12525768.404 10 0 59600 37800.00000 0 -20182997.987 3808108.866 -15066408.004 10 0 59600 38700.00000 0 -18484640.287 2746934.300 -17313175.100 10 0 59600 39600.00000 0 -16662355.416 1412553.922 -19222360.150 10 0 59600 40500.00000 0 -14779388.958 -186843.069 -20756890.674 10 0 59600 41400.00000 0 -12898016.034 -2030809.642 -21887049.261 10 0 59600 42300.00000 0 -11077012.908 -4087258.078 -22591042.514 10 0 59600 43200.00000 0 -9369299.502 -6313574.071 -22855410.837 10 0 59600 44100.00000 0 -7819851.196 -8658180.533 -22675272.381 10 0 59600 45000.00000 0 -6463966.293 -11062484.979 -22054397.909 10 0 59600 45900.00000 0 -5325959.792 -13463128.727 -21005116.757 10 0 59600 46800.00000 0 -4418335.824 -15794443.818 -19548057.260 10 0 59600 47700.00000 0 -3741470.680 -17991015.322 -17711728.107 10 0 59600 48600.00000 0 -3283816.867 -19990242.821 -15531949.938 10 0 59600 49500.00000 0 -3022616.859 -21734795.336 -13051149.058 10 0 59600 50400.00000 0 -2925094.173 -23174858.657 -10317527.618 10 0 59600 51300.00000 0 -2950069.685 -24270083.048 -7384126.581 10 0 59600 52200.00000 0 -3049933.796 -24991151.896 -4307799.620 10 0 59600 53100.00000 0 -3172890.594 -25320907.573 -1148117.588 10 0 59600 54000.00000 0 -3265379.203 -25254989.243 2033775.762 10 0 59600 54900.00000 0 -3274570.496 -24801957.351 5176335.438 10 0 59600 55800.00000 0 -3150834.504 -23982900.624 8218792.399 10 0 59600 56700.00000 0 -2850075.211 -22830542.559 11102314.609 10 0 59600 57600.00000 0 -2335835.076 -21387884.764 13771130.695 10 0 59600 58500.00000 0 -1581081.126 -19706443.353 16173595.605 10 0 59600 59400.00000 0 -569597.535 -17844151.085 18263178.910 10 0 59600 60300.00000 0 703074.349 -15863011.461 19999357.724 10 0 59600 61200.00000 0 2229189.071 -13826601.150 21348397.824 10 0 59600 62100.00000 0 3988863.719 -11797523.215 22284008.475 10 0 59600 63000.00000 0 5950657.751 -9834915.739 22787858.547 10 0 59600 63900.00000 0 8072644.437 -7992118.473 22849943.667 10 0 59600 64800.00000 0 10303932.214 -6314593.775 22468796.667 10 0 59600 65700.00000 0 12586575.464 -4838188.085 21651536.119 10 0 59600 66600.00000 0 14857797.683 -3587806.508 20413750.475 10 0 59600 67500.00000 0 17052436.591 -2576556.275 18779218.303 10 0 59600 68400.00000 0 19105510.760 -1805395.623 16779468.051 10 0 59600 69300.00000 0 20954801.316 -1263303.747 14453184.036 10 0 59600 70200.00000 0 22543340.850 -927965.508 11845468.492 10 0 59600 71100.00000 0 23821704.640 -766942.744 9006972.702 10 0 59600 72000.00000 0 24750006.762 -739283.083 5992913.412 10 0 59600 72900.00000 0 25299515.675 -797498.051 2861993.494 10 0 59600 73800.00000 0 25453819.526 -889825.943 -324751.643 10 0 59600 74700.00000 0 25209490.469 -962682.219 -3505158.265 10 0 59600 75600.00000 0 24576218.715 -963191.631 -6617164.107 10 0 59600 76500.00000 0 23576409.910 -841692.386 -9600037.916 10 0 59600 77400.00000 0 22244262.662 -554103.750 -12395582.634 10 0 59600 78300.00000 0 20624365.645 -64054.291 -14949286.866 10 0 59600 79200.00000 0 18769874.361 655321.490 -17211400.497 10 0 59600 80100.00000 0 16740345.776 1619995.921 -19137912.206 10 0 59600 81000.00000 0 14599323.424 2834130.071 -20691409.111 10 0 59600 81900.00000 0 12411775.802 4289664.250 -21841801.711 10 0 59600 82800.00000 0 10241496.722 5966434.396 -22566900.343 10 0 59600 83700.00000 0 8148577.051 7832809.162 -22852832.918 10 0 59600 84600.00000 0 6187053.549 9846820.412 -22694297.038 10 0 59600 85500.00000 0 4402832.353 11957738.958 -22094643.136 99